Theta_e
318 311 307 308 298 295 291 294 295 296 298 302 308 312 311 315 310 301 327 336 338 341 345 346 348 350 350 351 351 350 348 347 346 346 346 345 344 343 343 342 342 340 339 340 338 337 335 333 334
312 311 309 301 293 288 290 294 295 299 302 310 310 310 312 310 322 325 326 336 339 342 344 345 345 349 350 350 350 350 349 348 346 346 346 345 344 343 343 343 343 340 339 336 336 334 336 334 335
306 310 304 297 290 288 290 293 297 300 301 302 308 316 313 316 322 326 329 338 340 341 343 344 344 348 349 349 348 348 349 348 347 345 344 345 343 342 342 344 344 343 336 335 336 338 338 335 338
304 305 299 294 291 295 294 297 299 298 300 302 310 310 316 318 325 329 333 339 339 339 342 341 344 348 348 348 347 347 347 347 346 344 343 342 342 341 339 342 341 340 340 336 335 338 339 335 335
306 299 291 288 289 293 295 298 299 299 299 299 302 308 312 314 328 331 333 338 337 337 340 340 343 346 347 347 347 346 346 346 345 344 343 342 341 340 339 337 336 337 337 336 335 338 342 338 337
298 295 288 285 287 294 295 297 297 297 297 299 302 310 311 308 324 328 330 334 338 337 339 340 337 340 343 345 345 345 345 344 344 344 343 343 342 341 339 338 337 335 335 336 336 340 341 339 337
295 291 287 287 289 291 295 297 299 297 296 297 304 304 306 303 313 315 328 328 335 337 337 338 339 338 335 339 340 342 343 342 342 342 342 341 339 341 341 340 339 337 336 336 338 339 338 337 337
298 294 289 289 289 290 296 295 297 297 297 301 303 301 302 304 306 319 328 328 332 335 336 336 337 338 340 339 333 335 337 338 339 338 336 334 333 334 334 333 335 338 338 338 338 338 338 336 336
300 291 288 290 289 290 294 292 295 296 294 296 299 303 307 306 305 315 319 325 328 332 333 335 336 340 339 338 335 330 332 333 333 333 330 329 332 332 330 329 330 334 336 336 338 337 338 335 332
294 289 291 292 291 290 293 291 291 292 291 292 294 298 302 303 302 309 312 322 322 324 328 332 336 337 339 340 339 334 336 335 335 336 335 334 331 330 331 325 326 329 330 332 335 336 333 329 326
293 289 291 293 293 293 292 291 291 289 290 293 292 294 301 300 301 304 307 317 320 316 312 318 323 332 336 336 336 336 337 335 334 331 331 333 333 329 330 330 328 328 322 326 328 328 330 326 323
289 294 293 295 295 293 291 292 291 291 292 293 294 292 300 300 300 301 302 302 306 305 303 301 305 308 310 311 314 315 320 318 324 329 329 331 331 329 328 327 326 325 326 324 324 324 327 327 326
289 290 292 292 292 292 292 291 290 290 293 294 294 294 292 298 298 297 299 295 297 297 296 296 296 298 301 301 301 301 301 304 303 305 308 322 327 327 328 326 325 323 323 323 321 322 324 325 325
290 290 290 290 289 290 289 287 287 290 290 291 292 292 291 292 298 293 292 293 294 295 294 295 295 296 298 298 298 297 297 298 298 299 300 303 311 321 322 323 322 321 320 321 322 324 324 324 325
290 286 287 286 288 287 286 286 286 290 290 290 290 290 290 291 292 293 293 293 293 294 294 295 295 296 296 296 297 297 297 299 298 299 300 301 303 306 315 318 318 319 319 319 319 322 323 321 323
285 284 281 285 286 286 284 284 288 288 288 289 289 289 289 289 291 291 291 292 292 293 294 295 298 295 295 295 296 296 297 297 297 298 299 301 302 303 303 307 313 318 318 317 317 317 316 316 318
283 279 280 284 286 285 283 283 287 287 288 287 288 288 289 288 288 290 291 291 291 293 294 295 295 295 295 296 295 295 296 296 296 297 298 299 301 303 302 303 307 311 314 314 316 319 319 316 318
280 279 281 281 283 284 282 283 288 288 288 288 287 288 287 288 289 289 290 290 291 291 293 294 294 294 294 294 294 294 295 296 297 298 299 301 302 303 302 302 303 305 309 311 312 315 316 317 315
282 281 280 281 284 282 281 282 286 287 286 286 286 286 286 287 286 288 289 290 290 291 292 293 291 290 290 291 290 291 292 294 294 295 297 297 297 299 298 299 300 302 303 306 309 311 311 312 313
281 280 279 282 284 281 280 281 287 286 286 284 285 285 285 286 287 287 288 289 291 290 290 290 290 290 290 290 290 291 290 291 292 294 295 296 297 297 297 296 296 298 299 301 305 308 308 309 309
280 280 279 280 281 282 279 281 284 285 286 285 285 285 286 286 287 288 289 288 287 287 288 289 291 291 291 291 291 291 290 290 291 292 293 295 296 297 297 296 296 296 297 297 298 301 304 303 305
279 281 281 281 277 273 279 275 280 284 284 285 284 283 284 286 288 288 288 287 287 288 288 290 292 291 291 291 290 289 288 288 290 291 293 294 295 296 296 297 296 296 296 296 296 299 300 301 300
280 282 281 281 275 271 274 271 279 282 282 283 283 284 284 285 287 288 288 289 288 289 288 289 290 290 290 290 291 290 290 291 292 293 292 293 294 294 295 295 295 294 295 295 295 295 296 297 298
284 281 281 279 274 267 271 273 277 279 281 282 283 284 285 286 287 287 287 289 289 289 288 288 289 289 291 292 292 291 290 290 290 290 290 291 291 292 292 293 293 293 293 293 293 294 294 294 296
281 278 269 270 268 272 275 271 278 282 281 282 284 284 285 287 287 287 287 288 288 288 288 288 288 290 292 291 291 290 290 289 288 288 289 288 289 290 289 290 291 291 292 293 293 292 292 292 292
279 278 273 267 270 272 275 271 279 283 284 284 287 287 287 287 287 287 286 288 288 288 287 287 291 290 290 290 290 290 290 289 289 289 290 290 290 290 290 290 290 291 291 292 293 293 293 293 292
279 277 281 270 262 268 273 277 281 282 282 283 285 287 287 287 286 285 287 287 288 287 287 290 290 289 289 289 289 289 289 289 289 288 290 290 290 290 289 289 289 290 290 291 291 290 291 292 292
280 282 277 277 270 265 271 272 277 279 281 283 285 286 286 286 286 287 288 287 287 286 289 290 289 288 288 289 289 290 291 290 289 289 289 289 289 288 288 288 289 289 290 291 291 291 291 291 292
278 277 279 281 279 272 269 275 282 281 282 284 285 286 285 285 286 287 286 286 285 285 288 288 288 287 288 288 289 290 291 289 288 288 289 289 289 289 289 289 289 290 291 291 291 291 291 291 291
280 279 280 277 274 273 273 274 284 283 285 286 285 286 285 285 286 286 286 285 285 285 286 286 287 286 287 288 288 290 290 290 289 288 289 289 288 289 289 289 290 290 291 291 291 290 291 290 290
Wind_Speed
8 6 1 5 4 4 4 5 3 0 1 1 2 4 6 3 2 4 2 10 8 13 11 12 14 15 13 13 13 12 12 11 10 9 9 8 7 7 7 7 8 7 5 5 6 7 7 5 5
5 4 5 3 5 2 5 4 3 3 2 6 3 2 4 1 2 4 4 6 11 13 11 10 12 14 13 12 11 11 11 11 11 10 9 8 7 6 6 8 10 9 7 2 5 4 9 8 6
3 1 4 5 3 5 5 3 3 2 2 4 3 4 2 3 2 6 2 8 9 10 10 9 11 13 13 12 12 11 10 10 10 9 8 8 7 6 7 10 11 10 5 3 5 5 8 9 7
2 4 5 4 5 6 5 3 4 1 2 3 3 4 1 2 3 4 7 8 9 7 8 9 12 12 12 11 11 10 9 9 9 8 7 6 6 3 3 3 3 1 7 6 6 7 14 4 4
3 3 4 0 5 5 4 3 4 2 1 1 1 4 3 3 1 6 8 8 10 7 6 9 12 12 12 11 10 9 8 8 7 6 6 7 7 6 5 3 3 5 5 6 7 9 11 14 11
4 4 4 3 5 5 4 1 2 2 1 1 4 6 4 3 2 4 7 7 7 9 6 9 11 11 11 11 10 9 9 9 8 7 6 6 7 7 7 6 6 6 7 8 8 10 11 12 11
6 4 4 3 4 4 4 1 3 2 1 2 6 5 2 2 4 3 5 6 6 6 6 6 7 8 10 11 11 10 9 9 8 8 7 7 7 8 8 7 7 7 7 8 7 7 7 10 11
5 4 3 4 3 5 1 3 0 2 5 3 5 5 5 5 5 5 5 5 6 6 6 6 5 6 7 6 8 8 8 8 8 8 8 7 7 7 7 7 7 8 8 7 7 7 7 9 9
3 4 3 5 6 4 3 1 1 2 2 3 2 6 4 6 7 6 4 3 4 4 5 5 6 6 5 5 6 9 9 10 11 9 9 7 4 5 7 6 7 10 9 8 8 8 8 9 10
4 3 8 4 3 2 1 0 2 2 2 5 4 1 3 5 6 8 6 6 5 4 4 5 5 6 6 5 6 6 5 4 5 4 4 4 4 4 5 6 9 10 10 10 11 10 9 7 4
3 5 3 3 2 1 2 3 1 2 5 9 7 4 4 4 5 7 5 7 8 4 3 3 3 2 5 3 1 1 2 0 1 3 3 3 3 3 4 3 4 5 7 5 7 5 5 5 4
1 6 3 3 1 2 3 3 6 7 8 1 7 0 5 6 7 7 7 7 7 6 6 4 4 4 4 3 3 2 3 3 2 2 3 3 2 4 4 3 4 4 3 4 4 3 6 5 6
3 3 2 2 4 5 3 6 6 11 11 9 7 6 5 7 7 5 6 4 6 6 6 4 4 4 3 4 2 2 1 1 1 2 3 2 3 4 3 3 3 4 3 4 4 5 6 7 7
2 4 7 5 2 4 3 4 2 5 1 3 6 11 9 8 10 4 6 6 7 6 6 5 4 3 4 3 3 1 1 2 3 3 4 4 3 3 3 4 4 4 4 4 4 6 6 7 7
2 5 7 1 1 3 1 8 10 8 6 8 6 5 6 10 6 9 8 7 8 5 5 6 5 4 4 3 2 2 3 3 3 3 5 5 4 4 5 4 4 4 4 5 4 5 5 5 6
2 3 4 1 2 1 2 10 5 4 1 7 8 7 6 5 9 7 7 6 7 6 7 6 5 5 5 4 3 2 2 3 3 4 3 5 5 5 5 4 5 4 4 3 3 4 4 4 5
5 4 5 5 3 1 2 9 6 3 6 9 9 8 7 6 4 5 7 8 8 8 8 6 5 5 5 4 3 3 4 3 3 4 4 6 6 5 4 4 5 5 4 4 4 5 8 5 7
6 4 4 5 1 1 2 16 15 8 8 12 9 9 9 8 10 5 6 6 6 5 6 7 5 5 5 3 3 3 3 3 2 3 4 6 5 6 4 4 5 4 4 4 4 8 6 8 6
2 3 4 2 2 2 4 10 21 7 6 9 9 8 7 7 1 5 6 8 8 6 7 6 7 4 3 3 2 2 3 3 3 4 5 6 5 5 5 4 5 5 3 5 6 6 8 7 5
4 2 5 4 2 1 4 13 20 7 3 2 6 7 2 5 6 7 8 6 4 7 6 7 6 4 3 2 0 1 2 3 3 3 6 6 6 5 5 4 5 5 4 5 6 6 7 6 5
3 5 3 3 4 3 7 9 4 3 4 5 7 4 5 6 9 8 8 7 6 6 5 5 4 3 3 3 2 2 2 2 3 3 4 4 7 7 7 7 5 5 4 5 5 6 9 9 5
2 2 3 3 4 4 4 6 4 5 7 6 6 7 6 7 6 7 7 6 6 5 4 4 3 3 3 4 3 3 2 4 3 4 4 7 6 7 8 9 7 6 4 5 5 6 7 6 9
4 3 4 3 4 4 5 5 9 4 5 5 4 5 5 5 7 7 6 6 5 5 3 3 3 5 5 5 5 3 4 3 4 6 7 7 7 6 7 7 7 6 5 5 6 6 7 7 9
6 5 6 4 3 3 4 6 6 3 5 6 2 3 5 6 6 5 3 5 3 3 3 2 4 4 5 5 4 4 6 7 6 7 7 6 5 5 6 6 7 6 6 6 7 6 6 6 7
3 5 3 5 4 6 3 4 8 6 3 3 6 5 4 6 6 5 5 3 1 3 1 2 4 3 3 5 5 5 6 6 7 6 6 6 6 6 5 6 8 7 8 8 7 8 9 8 8
6 6 6 7 3 4 3 6 3 4 5 1 4 5 5 4 3 3 2 2 1 1 3 3 4 5 6 7 7 5 6 4 5 5 6 7 7 8 9 8 9 10 10 10 10 8 9 10 9
4 5 4 9 1 4 3 5 4 2 2 4 7 7 4 3 2 1 3 3 2 1 1 1 2 4 5 6 6 6 6 6 8 8 9 8 8 7 9 8 10 11 11 11 11 8 11 11 10
2 3 3 2 2 3 5 5 5 7 7 7 6 6 3 3 4 4 4 3 3 2 1 2 3 5 5 6 5 6 9 9 9 8 10 12 11 9 10 10 10 11 11 12 11 10 11 12 9
2 2 1 2 3 6 2 7 6 11 9 9 7 4 2 3 5 5 4 4 4 4 3 4 4 5 5 6 6 7 11 11 8 9 10 12 11 11 13 12 12 12 12 12 11 12 12 13 12
2 4 6 5 5 0 3 8 3 10 8 9 7 4 2 3 4 4 4 5 5 5 5 5 5 5 5 6 8 8 9 9 9 9 11 10 10 11 11 12 12 12 13 12 13 13 12 13 13
Wind_Direction
328 320 64 41 50 62 266 263 263 70 30 328 329 124 137 65 143 201 305 179 136 154 162 165 164 164 165 163 164 161 161 161 157 153 153 156 157 161 167 173 177 175 181 207 166 148 148 142 146
328 336 38 83 92 65 267 263 240 227 179 119 86 58 35 103 131 132 120 188 160 155 162 168 167 166 164 162 158 167 174 170 168 169 171 177 181 193 206 203 205 181 183 194 204 197 166 156 197
291 31 90 102 124 189 216 244 217 274 282 178 87 65 126 170 349 155 238 140 143 152 161 166 166 170 169 168 164 165 168 173 176 182 186 191 197 218 243 233 215 191 153 205 260 207 170 148 219
82 15 34 102 219 248 217 264 214 224 316 50 117 73 19 240 174 174 137 135 138 147 160 161 167 172 173 173 173 171 170 173 177 185 192 203 216 210 246 222 183 178 166 230 271 256 171 145 216
37 58 71 219 254 268 254 264 176 219 283 337 22 188 189 333 346 128 139 145 145 150 158 162 169 172 175 177 178 177 177 181 182 190 203 204 210 208 211 190 195 218 225 244 272 276 220 166 191
50 98 73 235 252 265 277 272 294 231 296 266 85 140 217 317 169 147 145 160 154 157 159 168 174 173 175 180 180 182 191 194 192 194 209 220 215 216 220 223 225 236 249 264 273 299 216 176 179
120 99 198 215 249 280 220 306 201 173 298 282 144 148 271 267 206 136 139 148 150 149 147 168 174 184 185 184 186 189 201 204 205 205 215 224 229 217 224 232 235 242 253 262 274 294 222 184 185
107 95 154 249 220 259 307 329 290 190 241 304 167 208 249 215 184 91 92 130 135 140 150 159 169 186 196 197 195 197 203 208 213 213 216 225 232 235 234 235 251 261 262 261 262 262 232 216 206
124 70 209 234 170 240 352 5 317 337 290 301 232 158 252 178 134 108 100 78 108 139 160 160 173 195 194 187 192 210 218 213 215 213 219 225 224 226 230 232 234 249 258 265 262 258 248 246 219
105 139 219 216 185 225 317 190 306 338 245 264 285 265 62 131 148 152 155 154 149 165 178 188 194 195 182 198 192 205 210 218 216 214 226 228 217 226 226 222 229 239 242 248 252 251 248 241 222
164 203 219 267 190 158 268 268 277 265 253 230 218 221 173 160 156 172 174 173 174 160 138 155 160 148 178 192 142 125 249 180 258 255 253 249 236 232 236 239 241 242 241 245 241 246 238 222 210
211 244 227 263 223 184 227 302 288 206 232 200 241 153 170 178 189 199 194 191 171 162 160 142 109 103 84 82 63 73 68 35 18 344 284 242 235 226 231 223 232 235 235 233 226 234 244 233 224
216 293 308 298 315 270 307 245 244 262 250 262 260 270 229 221 215 210 205 202 163 164 162 147 125 122 124 101 84 80 64 51 333 330 335 347 278 270 261 239 236 237 232 231 230 224 229 228 221
326 306 281 287 290 267 264 266 49 261 253 277 230 244 232 221 215 199 180 195 183 161 163 154 134 131 132 137 148 150 16 327 330 317 306 308 293 269 256 253 244 238 219 235 232 240 238 240 237
335 326 323 251 278 221 32 289 232 250 314 284 288 283 236 224 211 207 195 179 176 178 153 154 138 129 120 112 63 34 355 360 330 315 323 313 304 296 292 282 268 254 239 242 240 247 239 239 240
360 62 350 313 76 341 83 272 273 358 250 275 273 276 271 243 222 229 206 192 177 148 160 156 132 112 88 72 47 13 344 329 312 313 310 301 298 288 287 281 273 267 256 234 235 234 245 245 253
3 242 210 304 56 332 162 274 269 60 351 293 284 273 256 261 258 231 205 189 170 162 144 122 94 84 77 54 31 359 336 330 322 325 327 320 316 305 279 281 280 280 261 244 236 242 249 253 255
206 225 251 249 14 32 233 271 276 292 274 274 275 257 252 248 252 208 171 146 123 111 101 104 97 85 65 41 15 359 336 338 342 343 335 333 327 329 326 301 287 289 281 273 250 247 238 235 243
137 194 248 275 81 293 247 278 282 307 267 293 299 289 258 242 276 135 125 113 105 98 112 117 111 71 58 35 16 355 307 305 327 338 333 325 319 319 319 304 309 309 274 256 255 257 251 251 228
215 198 255 277 88 32 10 286 279 290 266 329 329 3 49 101 81 101 109 114 120 132 120 116 98 64 56 65 333 261 295 295 284 306 319 321 320 316 308 296 281 277 282 281 267 261 265 254 202
203 186 224 221 350 54 338 288 349 313 354 40 22 21 57 101 109 107 105 105 104 111 124 117 103 84 65 45 356 333 316 328 337 323 307 303 317 315 316 312 306 301 280 275 258 263 262 267 248
231 157 111 89 65 230 7 277 324 349 17 37 39 55 72 81 73 95 111 119 146 167 152 120 101 64 50 32 29 14 313 307 281 297 286 301 295 296 296 295 294 291 286 274 259 265 259 264 265
204 100 101 91 94 64 320 83 269 352 358 4 69 89 90 104 122 137 143 154 180 155 127 76 55 43 28 25 27 6 321 283 293 299 294 297 292 282 289 291 290 287 285 285 287 282 270 263 269
140 80 55 65 95 20 246 131 287 353 304 305 78 103 127 133 125 115 116 147 145 98 75 50 40 23 23 30 14 331 299 297 296 299 296 298 296 294 285 297 295 290 289 288 283 280 289 289 284
98 90 340 356 15 219 151 66 239 299 307 240 143 148 151 128 128 150 162 190 143 162 91 26 23 9 0 332 318 296 273 269 269 279 286 288 295 298 293 295 291 286 284 276 278 282 277 276 277
176 161 161 203 196 246 6 240 229 245 300 59 115 119 100 120 165 186 230 351 299 74 40 28 23 343 338 330 307 296 291 286 277 269 292 292 297 296 292 280 277 276 275 272 268 265 270 262 259
179 193 143 105 63 50 236 276 327 79 106 116 97 83 94 153 136 85 344 29 9 11 92 106 347 327 323 305 302 304 293 298 294 291 293 293 284 288 286 281 278 276 273 268 265 261 260 258 255
196 164 104 4 140 262 291 279 215 189 181 142 115 70 16 348 328 339 347 337 342 3 351 340 332 306 302 310 306 300 312 303 283 291 292 300 294 286 282 280 275 271 266 264 262 258 257 258 257
145 228 242 113 138 171 219 258 218 173 181 151 153 177 176 303 328 322 325 315 309 293 272 281 291 308 319 313 296 282 317 307 289 288 293 301 299 300 297 292 284 275 272 266 263 259 261 260 259
257 214 177 143 220 224 139 273 146 165 170 152 178 198 255 294 286 300 302 313 317 306 297 292 300 304 297 292 288 279 296 299 297 295 295 294 296 297 287 283 280 279 274 271 266 264 261 259 258